QPF
0.02 0.02 0.02 0.02 0.02 0.01 0.01 0.02 0.02 0.01 0.01 0.01 0.02 0.03 0.04 0.05 0.08 0.07 0.05 0.04 0.04 0.03 0.04 0.08 0.11 0.13 0.13 0.10 0.09 0.09 0.10 0.11 0.11 0.11 0.11 0.11 0.14 0.16 0.11 0.06 0.03 0.02 0.02 0.05
0.03 0.01 0.01 0.01 0.02 0.01 0.01 0.02 0.01 0.01 0.01 0.01 0.02 0.03 0.03 0.04 0.06 0.06 0.04 0.04 0.03 0.03 0.03 0.07 0.10 0.13 0.15 0.13 0.11 0.09 0.11 0.12 0.11 0.11 0.12 0.14 0.13 0.16 0.15 0.09 0.04 0.03 0.03 0.05
0.02 0.01 0.01 0.01 0.02 0.02 0.01 0.01 0.01 0.02 0.02 0.02 0.03 0.03 0.02 0.03 0.04 0.05 0.04 0.04 0.03 0.03 0.03 0.05 0.09 0.12 0.16 0.16 0.14 0.11 0.10 0.11 0.11 0.10 0.12 0.15 0.15 0.14 0.17 0.13 0.06 0.04 0.03 0.04
0.01 0.01 0.01 0.01 0.01 0.02 0.01 0.01 0.01 0.02 0.02 0.02 0.03 0.03 0.01 0.02 0.03 0.04 0.04 0.05 0.04 0.03 0.03 0.05 0.08 0.09 0.12 0.15 0.17 0.16 0.12 0.10 0.10 0.09 0.10 0.11 0.14 0.13 0.14 0.15 0.08 0.04 0.04 0.05
0.01 0.02 0.01 0.01 0.01 0.02 0.01 0.01 0.01 0.01 0.02 0.02 0.02 0.02 0.01 0.01 0.03 0.03 0.04 0.04 0.03 0.03 0.04 0.05 0.07 0.08 0.10 0.12 0.16 0.20 0.14 0.10 0.09 0.09 0.08 0.09 0.09 0.10 0.10 0.12 0.12 0.07 0.05 0.05
0.01 0.02 0.02 0.01 0.01 0.02 0.01 0.01 0.02 0.02 0.03 0.04 0.02 0.02 0.01 0.02 0.03 0.02 0.03 0.03 0.02 0.02 0.04 0.05 0.06 0.07 0.08 0.11 0.15 0.20 0.18 0.14 0.09 0.11 0.10 0.10 0.08 0.07 0.08 0.09 0.12 0.10 0.07 0.05
0.02 0.02 0.03 0.02 0.02 0.02 0.02 0.02 0.04 0.05 0.05 0.04 0.01 0.01 0.01 0.02 0.03 0.03 0.03 0.03 0.02 0.02 0.03 0.05 0.06 0.07 0.07 0.09 0.13 0.19 0.19 0.18 0.17 0.15 0.15 0.11 0.09 0.08 0.07 0.06 0.08 0.09 0.08 0.06
0.03 0.04 0.03 0.02 0.02 0.02 0.02 0.01 0.02 0.03 0.02 0.02 0.01 0.01 0.02 0.02 0.02 0.03 0.03 0.03 0.02 0.02 0.02 0.04 0.06 0.07 0.06 0.07 0.10 0.14 0.17 0.14 0.15 0.18 0.21 0.17 0.11 0.10 0.09 0.08 0.07 0.08 0.08 0.07
0.03 0.04 0.03 0.02 0.01 0.02 0.02 0.02 0.01 0.02 0.01 0.01 0.01 0.01 0.02 0.01 0.01 0.02 0.02 0.02 0.02 0.03 0.02 0.03 0.05 0.06 0.06 0.06 0.08 0.12 0.16 0.16 0.14 0.16 0.20 0.23 0.17 0.13 0.12 0.09 0.07 0.07 0.07 0.08
0.01 0.03 0.03 0.02 0.01 0.01 0.01 0.01 0.01 0.02 0.02 0.01 0.01 0.01 0.01 0.01 0.01 0.01 0.02 0.03 0.03 0.03 0.04 0.04 0.04 0.03 0.04 0.06 0.07 0.10 0.14 0.18 0.16 0.17 0.19 0.20 0.20 0.15 0.13 0.11 0.08 0.08 0.08 0.09
0.01 0.02 0.02 0.01 0.01 0.01 0.01 0.02 0.02 0.02 0.01 0.01 0.01 0.00 0.00 0.01 0.01 0.02 0.04 0.03 0.03 0.04 0.05 0.06 0.04 0.03 0.03 0.05 0.08 0.09 0.12 0.17 0.16 0.15 0.16 0.16 0.17 0.14 0.11 0.10 0.08 0.08 0.09 0.09
0.01 0.01 0.01 0.01 0.01 0.00 0.01 0.02 0.02 0.03 0.02 0.01 0.01 0.01 0.00 0.00 0.01 0.02 0.03 0.04 0.03 0.04 0.04 0.03 0.03 0.03 0.04 0.06 0.09 0.08 0.10 0.17 0.18 0.16 0.16 0.14 0.12 0.10 0.09 0.08 0.07 0.07 0.08 0.07
0.01 0.02 0.01 0.01 0.01 0.00 0.00 0.01 0.02 0.02 0.02 0.02 0.01 0.00 0.00 0.00 0.00 0.01 0.02 0.04 0.04 0.04 0.03 0.02 0.02 0.02 0.04 0.05 0.06 0.06 0.07 0.11 0.17 0.19 0.17 0.13 0.10 0.08 0.07 0.07 0.08 0.09 0.08 0.07
0.02 0.02 0.01 0.01 0.00 0.01 0.01 0.00 0.01 0.02 0.02 0.01 0.01 0.00 0.00 0.00 0.01 0.01 0.01 0.02 0.04 0.05 0.04 0.02 0.01 0.02 0.03 0.04 0.04 0.04 0.05 0.07 0.11 0.15 0.12 0.10 0.10 0.07 0.06 0.07 0.07 0.07 0.08 0.07
0.01 0.01 0.00 0.00 0.00 0.00 0.01 0.01 0.01 0.01 0.01 0.01 0.01 0.00 0.00 0.01 0.01 0.01 0.01 0.01 0.02 0.04 0.04 0.02 0.01 0.01 0.02 0.02 0.03 0.04 0.05 0.05 0.07 0.10 0.10 0.09 0.08 0.07 0.05 0.05 0.07 0.06 0.07 0.06
0.00 0.01 0.00 0.00 0.00 0.00 0.01 0.01 0.00 0.01 0.01 0.01 0.01 0.01 0.00 0.01 0.01 0.01 0.00 0.01 0.01 0.02 0.02 0.01 0.01 0.01 0.01 0.01 0.02 0.03 0.05 0.05 0.06 0.07 0.07 0.07 0.05 0.04 0.03 0.04 0.06 0.06 0.06 0.05
0.00 0.01 0.01 0.00 0.00 0.01 0.01 0.01 0.01 0.02 0.01 0.01 0.02 0.01 0.01 0.01 0.01 0.01 0.01 0.01 0.01 0.01 0.01 0.01 0.02 0.02 0.01 0.01 0.01 0.03 0.05 0.05 0.07 0.07 0.06 0.04 0.03 0.03 0.02 0.02 0.05 0.06 0.06 0.06
0.00 0.01 0.01 0.01 0.00 0.01 0.01 0.01 0.01 0.02 0.02 0.02 0.02 0.01 0.01 0.01 0.01 0.00 0.01 0.02 0.01 0.01 0.01 0.01 0.02 0.02 0.01 0.01 0.01 0.02 0.04 0.04 0.06 0.07 0.05 0.04 0.04 0.03 0.02 0.02 0.04 0.05 0.05 0.05
0.00 0.01 0.02 0.02 0.01 0.01 0.00 0.00 0.00 0.02 0.02 0.01 0.01 0.01 0.01 0.00 0.00 0.00 0.01 0.01 0.01 0.01 0.00 0.01 0.01 0.01 0.01 0.02 0.01 0.02 0.03 0.04 0.05 0.07 0.06 0.05 0.04 0.04 0.03 0.03 0.04 0.06 0.05 0.04
0.01 0.02 0.02 0.02 0.02 0.01 0.00 0.00 0.00 0.01 0.01 0.01 0.01 0.01 0.01 0.01 0.01 0.01 0.00 0.01 0.01 0.00 0.00 0.00 0.01 0.01 0.02 0.02 0.02 0.02 0.03 0.03 0.04 0.05 0.05 0.04 0.04 0.04 0.03 0.03 0.04 0.06 0.05 0.04
0.01 0.02 0.02 0.01 0.01 0.00 0.00 0.00 0.00 0.01 0.01 0.00 0.01 0.01 0.01 0.01 0.01 0.01 0.01 0.01 0.01 0.00 0.00 0.01 0.01 0.01 0.02 0.02 0.02 0.03 0.04 0.04 0.04 0.04 0.04 0.04 0.04 0.03 0.03 0.02 0.03 0.05 0.04 0.03
0.01 0.01 0.01 0.01 0.02 0.01 0.00 0.00 0.01 0.01 0.00 0.00 0.00 0.01 0.01 0.01 0.01 0.01 0.01 0.01 0.01 0.00 0.00 0.01 0.01 0.01 0.02 0.03 0.04 0.04 0.04 0.04 0.03 0.04 0.04 0.04 0.04 0.03 0.02 0.02 0.03 0.04 0.03 0.03
0.01 0.01 0.01 0.01 0.00 0.00 0.00 0.00 0.01 0.01 0.01 0.00 0.00 0.00 0.01 0.01 0.01 0.01 0.01 0.01 0.01 0.01 0.00 0.01 0.01 0.01 0.02 0.04 0.04 0.04 0.04 0.03 0.03 0.04 0.04 0.04 0.03 0.03 0.02 0.01 0.02 0.04 0.04 0.03
0.01 0.01 0.01 0.01 0.00 0.00 0.00 0.00 0.00 0.01 0.01 0.00 0.00 0.00 0.00 0.01 0.01 0.01 0.01 0.01 0.01 0.01 0.00 0.01 0.01 0.01 0.02 0.03 0.04 0.04 0.03 0.03 0.03 0.03 0.03 0.04 0.03 0.03 0.02 0.02 0.02 0.03 0.04 0.02
0.00 0.01 0.01 0.01 0.00 0.00 0.00 0.00 0.01 0.01 0.00 0.00 0.00 0.00 0.00 0.01 0.01 0.01 0.01 0.00 0.00 0.00 0.00 0.01 0.01 0.01 0.02 0.02 0.03 0.04 0.03 0.03 0.03 0.03 0.03 0.03 0.03 0.03 0.03 0.03 0.02 0.03 0.04 0.02
0.00 0.01 0.01 0.01 0.00 0.01 0.01 0.00 0.00 0.00 0.00 0.00 0.01 0.01 0.01 0.01 0.02 0.01 0.01 0.01 0.01 0.01 0.01 0.01 0.01 0.01 0.01 0.02 0.02 0.03 0.03 0.03 0.03 0.03 0.03 0.03 0.03 0.03 0.03 0.02 0.03 0.03 0.04 0.03
MSLP
1019.38 1019.20 1018.89 1018.46 1017.92 1017.30 1016.63 1015.99 1015.41 1014.96 1014.68 1014.56 1014.62 1014.82 1015.11 1015.42 1015.68 1015.83 1015.80 1015.56 1015.09 1014.40 1013.52 1012.50 1011.40 1010.30 1009.24 1008.26 1007.38 1006.61 1005.92 1005.30 1004.70 1004.12 1003.55 1003.01 1002.54 1002.20 1002.05 1002.16 1002.56 1003.27 1004.26 1005.51
1020.25 1019.90 1019.42 1018.81 1018.12 1017.41 1016.71 1016.09 1015.58 1015.22 1015.02 1014.99 1015.10 1015.32 1015.60 1015.88 1016.11 1016.23 1016.18 1015.94 1015.48 1014.80 1013.94 1012.93 1011.83 1010.71 1009.60 1008.57 1007.63 1006.80 1006.06 1005.37 1004.73 1004.09 1003.47 1002.88 1002.36 1001.97 1001.78 1001.85 1002.22 1002.91 1003.90 1005.15
1021.07 1020.54 1019.87 1019.11 1018.31 1017.54 1016.84 1016.27 1015.85 1015.58 1015.48 1015.50 1015.63 1015.82 1016.04 1016.25 1016.39 1016.43 1016.33 1016.07 1015.62 1014.97 1014.15 1013.18 1012.12 1011.00 1009.89 1008.82 1007.84 1006.95 1006.14 1005.40 1004.71 1004.03 1003.38 1002.77 1002.23 1001.84 1001.65 1001.72 1002.10 1002.79 1003.78 1005.02
1021.87 1021.18 1020.37 1019.50 1018.65 1017.87 1017.23 1016.74 1016.43 1016.27 1016.22 1016.27 1016.37 1016.48 1016.58 1016.64 1016.64 1016.56 1016.37 1016.06 1015.60 1014.99 1014.22 1013.30 1012.28 1011.20 1010.09 1009.00 1007.97 1007.02 1006.15 1005.35 1004.60 1003.90 1003.24 1002.64 1002.14 1001.79 1001.65 1001.78 1002.20 1002.91 1003.91 1005.13
1022.72 1021.92 1021.03 1020.13 1019.29 1018.58 1018.04 1017.68 1017.48 1017.41 1017.40 1017.43 1017.43 1017.40 1017.31 1017.16 1016.96 1016.71 1016.40 1016.01 1015.52 1014.93 1014.21 1013.35 1012.38 1011.33 1010.22 1009.11 1008.02 1007.00 1006.05 1005.18 1004.38 1003.66 1003.01 1002.46 1002.03 1001.77 1001.74 1001.96 1002.45 1003.22 1004.24 1005.44
1023.64 1022.80 1021.92 1021.06 1020.32 1019.74 1019.36 1019.14 1019.07 1019.06 1019.06 1019.00 1018.86 1018.62 1018.29 1017.88 1017.43 1016.97 1016.49 1016.00 1015.47 1014.88 1014.19 1013.38 1012.45 1011.41 1010.30 1009.14 1007.99 1006.87 1005.83 1004.88 1004.04 1003.30 1002.68 1002.20 1001.87 1001.75 1001.84 1002.19 1002.80 1003.64 1004.69 1005.89
1024.62 1023.82 1023.01 1022.29 1021.72 1021.33 1021.13 1021.08 1021.11 1021.14 1021.10 1020.92 1020.59 1020.09 1019.47 1018.77 1018.05 1017.35 1016.69 1016.08 1015.48 1014.88 1014.20 1013.42 1012.51 1011.48 1010.33 1009.12 1007.87 1006.66 1005.52 1004.48 1003.58 1002.83 1002.25 1001.85 1001.65 1001.67 1001.92 1002.42 1003.15 1004.09 1005.19 1006.39
1025.61 1024.90 1024.25 1023.72 1023.36 1023.20 1023.20 1023.30 1023.42 1023.46 1023.34 1023.00 1022.44 1021.67 1020.75 1019.75 1018.75 1017.82 1016.98 1016.25 1015.58 1014.94 1014.27 1013.49 1012.58 1011.53 1010.34 1009.05 1007.71 1006.38 1005.13 1004.01 1003.05 1002.29 1001.74 1001.43 1001.35 1001.53 1001.94 1002.59 1003.45 1004.48 1005.63 1006.85
1026.51 1025.96 1025.51 1025.20 1025.09 1025.15 1025.33 1025.56 1025.73 1025.74 1025.51 1025.00 1024.21 1023.17 1021.97 1020.70 1019.46 1018.32 1017.33 1016.48 1015.75 1015.08 1014.39 1013.60 1012.67 1011.58 1010.33 1008.95 1007.51 1006.07 1004.72 1003.51 1002.50 1001.73 1001.23 1000.99 1001.03 1001.34 1001.90 1002.69 1003.66 1004.77 1005.96 1007.20
1027.27 1026.90 1026.66 1026.59 1026.70 1026.95 1027.29 1027.60 1027.78 1027.73 1027.38 1026.69 1025.68 1024.42 1022.99 1021.51 1020.09 1018.80 1017.69 1016.77 1015.99 1015.28 1014.56 1013.75 1012.78 1011.64 1010.31 1008.85 1007.31 1005.78 1004.34 1003.06 1002.01 1001.24 1000.77 1000.60 1000.74 1001.16 1001.84 1002.73 1003.78 1004.95 1006.18 1007.42
1027.85 1027.66 1027.62 1027.76 1028.05 1028.45 1028.88 1029.22 1029.36 1029.22 1028.73 1027.88 1026.70 1025.27 1023.69 1022.09 1020.56 1019.20 1018.04 1017.08 1016.27 1015.53 1014.78 1013.93 1012.91 1011.70 1010.31 1008.77 1007.15 1005.54 1004.03 1002.71 1001.64 1000.87 1000.43 1000.32 1000.54 1001.04 1001.79 1002.75 1003.85 1005.05 1006.29 1007.52
1028.29 1028.27 1028.40 1028.69 1029.11 1029.58 1030.03 1030.33 1030.40 1030.14 1029.52 1028.54 1027.25 1025.72 1024.08 1022.44 1020.90 1019.54 1018.38 1017.42 1016.60 1015.83 1015.04 1014.14 1013.06 1011.78 1010.31 1008.70 1007.02 1005.35 1003.81 1002.48 1001.41 1000.67 1000.26 1000.20 1000.47 1001.03 1001.83 1002.82 1003.94 1005.14 1006.36 1007.57
1028.69 1028.81 1029.06 1029.44 1029.91 1030.38 1030.78 1030.99 1030.93 1030.55 1029.81 1028.73 1027.38 1025.83 1024.21 1022.61 1021.13 1019.83 1018.72 1017.79 1016.97 1016.18 1015.33 1014.36 1013.20 1011.84 1010.29 1008.62 1006.90 1005.22 1003.67 1002.35 1001.32 1000.62 1000.26 1000.26 1000.57 1001.16 1001.99 1002.99 1004.10 1005.28 1006.47 1007.65
1029.18 1029.39 1029.72 1030.12 1030.57 1030.97 1031.25 1031.32 1031.11 1030.59 1029.74 1028.60 1027.23 1025.73 1024.18 1022.69 1021.32 1020.12 1019.09 1018.20 1017.37 1016.54 1015.62 1014.55 1013.29 1011.84 1010.22 1008.50 1006.75 1005.07 1003.56 1002.29 1001.32 1000.68 1000.40 1000.45 1000.81 1001.44 1002.28 1003.28 1004.37 1005.52 1006.68 1007.82
1029.85 1030.13 1030.47 1030.85 1031.20 1031.48 1031.59 1031.49 1031.11 1030.44 1029.50 1028.32 1026.98 1025.55 1024.12 1022.76 1021.54 1020.45 1019.50 1018.63 1017.78 1016.89 1015.87 1014.68 1013.31 1011.75 1010.05 1008.28 1006.53 1004.88 1003.42 1002.23 1001.35 1000.81 1000.61 1000.74 1001.16 1001.83 1002.69 1003.68 1004.76 1005.88 1007.01 1008.13
1030.77 1031.07 1031.39 1031.69 1031.92 1032.02 1031.95 1031.64 1031.09 1030.29 1029.26 1028.07 1026.77 1025.43 1024.13 1022.92 1021.83 1020.84 1019.94 1019.08 1018.18 1017.18 1016.04 1014.71 1013.19 1011.52 1009.74 1007.94 1006.19 1004.58 1003.21 1002.12 1001.36 1000.94 1000.85 1001.08 1001.57 1002.29 1003.18 1004.19 1005.26 1006.37 1007.48 1008.57
1031.91 1032.20 1032.47 1032.66 1032.74 1032.65 1032.38 1031.88 1031.16 1030.24 1029.15 1027.96 1026.71 1025.47 1024.29 1023.20 1022.21 1021.30 1020.41 1019.51 1018.52 1017.39 1016.09 1014.60 1012.94 1011.15 1009.30 1007.46 1005.73 1004.19 1002.91 1001.94 1001.31 1001.03 1001.07 1001.41 1002.00 1002.79 1003.73 1004.76 1005.85 1006.96 1008.06 1009.15
1033.15 1033.41 1033.60 1033.67 1033.59 1033.34 1032.88 1032.22 1031.36 1030.35 1029.23 1028.04 1026.85 1025.70 1024.62 1023.62 1022.69 1021.80 1020.89 1019.90 1018.80 1017.52 1016.05 1014.39 1012.58 1010.68 1008.76 1006.91 1005.21 1003.74 1002.57 1001.74 1001.26 1001.12 1001.30 1001.76 1002.45 1003.32 1004.31 1005.39 1006.50 1007.62 1008.73 1009.82
1034.33 1034.54 1034.63 1034.59 1034.37 1033.97 1033.37 1032.59 1031.65 1030.59 1029.45 1028.30 1027.17 1026.09 1025.09 1024.15 1023.24 1022.33 1021.36 1020.27 1019.02 1017.58 1015.95 1014.14 1012.21 1010.22 1008.25 1006.40 1004.75 1003.37 1002.31 1001.61 1001.27 1001.27 1001.58 1002.16 1002.95 1003.90 1004.95 1006.07 1007.22 1008.35 1009.47 1010.56
1035.25 1035.40 1035.40 1035.25 1034.93 1034.42 1033.74 1032.90 1031.93 1030.87 1029.77 1028.67 1027.61 1026.61 1025.66 1024.75 1023.84 1022.88 1021.83 1020.62 1019.24 1017.65 1015.88 1013.95 1011.93 1009.88 1007.91 1006.09 1004.51 1003.22 1002.28 1001.71 1001.49 1001.61 1002.04 1002.71 1003.58 1004.59 1005.70 1006.85 1008.01 1009.16 1010.29 1011.37
1035.79 1035.86 1035.78 1035.55 1035.16 1034.60 1033.90 1033.06 1032.12 1031.12 1030.10 1029.09 1028.12 1027.19 1026.29 1025.39 1024.46 1023.45 1022.31 1021.00 1019.50 1017.80 1015.93 1013.93 1011.86 1009.82 1007.88 1006.12 1004.62 1003.44 1002.61 1002.15 1002.05 1002.26 1002.77 1003.51 1004.43 1005.48 1006.60 1007.77 1008.94 1010.08 1011.19 1012.26
1035.87 1035.86 1035.71 1035.43 1035.01 1034.46 1033.79 1033.02 1032.17 1031.29 1030.39 1029.50 1028.63 1027.78 1026.93 1026.05 1025.10 1024.04 1022.83 1021.44 1019.86 1018.10 1016.18 1014.17 1012.12 1010.13 1008.27 1006.61 1005.21 1004.14 1003.42 1003.06 1003.03 1003.31 1003.85 1004.62 1005.55 1006.60 1007.72 1008.87 1010.02 1011.14 1012.22 1013.26
1035.53 1035.44 1035.24 1034.94 1034.53 1034.03 1033.44 1032.79 1032.09 1031.36 1030.61 1029.87 1029.12 1028.36 1027.56 1026.70 1025.74 1024.64 1023.39 1021.95 1020.34 1018.57 1016.67 1014.71 1012.74 1010.85 1009.11 1007.58 1006.31 1005.35 1004.73 1004.44 1004.46 1004.77 1005.32 1006.08 1006.98 1007.99 1009.07 1010.17 1011.28 1012.35 1013.39 1014.38
1034.88 1034.72 1034.49 1034.18 1033.82 1033.40 1032.94 1032.44 1031.91 1031.36 1030.79 1030.20 1029.58 1028.91 1028.17 1027.33 1026.36 1025.25 1023.98 1022.54 1020.94 1019.21 1017.39 1015.53 1013.69 1011.95 1010.36 1008.98 1007.86 1007.01 1006.48 1006.24 1006.29 1006.59 1007.12 1007.83 1008.67 1009.62 1010.63 1011.66 1012.70 1013.71 1014.69 1015.62
1034.08 1033.87 1033.62 1033.34 1033.05 1032.74 1032.42 1032.09 1031.74 1031.37 1030.97 1030.52 1030.01 1029.42 1028.73 1027.91 1026.95 1025.84 1024.58 1023.16 1021.61 1019.97 1018.26 1016.55 1014.88 1013.32 1011.91 1010.69 1009.71 1008.98 1008.52 1008.33 1008.38 1008.66 1009.13 1009.77 1010.54 1011.40 1012.32 1013.28 1014.24 1015.19 1016.10 1016.97
1033.34 1033.08 1032.83 1032.60 1032.38 1032.19 1032.01 1031.84 1031.66 1031.45 1031.19 1030.86 1030.45 1029.91 1029.25 1028.45 1027.49 1026.38 1025.14 1023.76 1022.29 1020.76 1019.19 1017.65 1016.17 1014.80 1013.58 1012.53 1011.69 1011.06 1010.67 1010.50 1010.54 1010.78 1011.19 1011.76 1012.44 1013.22 1014.06 1014.94 1015.83 1016.71 1017.57 1018.39
Thickness
5548 5541 5535 5534 5533 5532 5528 5524 5521 5525 5526 5522 5520 5520 5525 5529 5529 5528 5531 5534 5536 5539 5543 5546 5549 5552 5556 5559 5561 5563 5566 5568 5570 5571 5572 5571 5571 5573 5574 5576 5578 5580 5581 5582
5539 5536 5537 5535 5532 5529 5525 5521 5518 5520 5522 5519 5514 5516 5523 5525 5526 5526 5527 5528 5529 5532 5536 5539 5541 5544 5547 5551 5553 5556 5558 5559 5561 5562 5563 5562 5562 5563 5566 5567 5568 5570 5572 5573
5537 5535 5536 5532 5527 5524 5522 5517 5516 5515 5516 5514 5509 5514 5518 5522 5522 5522 5523 5523 5524 5526 5528 5531 5534 5536 5538 5541 5544 5547 5549 5550 5552 5553 5554 5554 5554 5554 5556 5557 5559 5562 5564 5565
5529 5531 5530 5526 5522 5520 5517 5518 5516 5513 5506 5502 5504 5501 5513 5514 5515 5517 5517 5517 5517 5518 5521 5524 5526 5528 5531 5533 5535 5537 5539 5542 5543 5545 5546 5546 5546 5547 5548 5548 5550 5552 5555 5557
5526 5525 5523 5520 5519 5516 5511 5511 5509 5507 5500 5495 5495 5492 5505 5509 5509 5511 5511 5511 5510 5512 5515 5517 5519 5522 5525 5526 5527 5529 5532 5533 5535 5537 5538 5538 5539 5539 5539 5540 5541 5544 5546 5549
5520 5519 5517 5515 5513 5511 5508 5504 5502 5494 5488 5489 5494 5488 5496 5499 5503 5505 5506 5505 5505 5507 5509 5511 5513 5515 5517 5519 5520 5521 5524 5525 5527 5528 5529 5530 5531 5531 5531 5533 5533 5535 5538 5541
5514 5513 5510 5509 5507 5504 5500 5495 5485 5482 5477 5484 5488 5486 5494 5502 5502 5502 5501 5501 5501 5502 5503 5505 5507 5508 5510 5511 5513 5514 5516 5517 5518 5520 5521 5522 5523 5524 5525 5526 5526 5527 5530 5533
5503 5504 5505 5503 5502 5497 5492 5491 5480 5475 5472 5479 5481 5480 5495 5499 5498 5497 5497 5496 5496 5497 5497 5500 5501 5502 5502 5504 5505 5506 5508 5509 5511 5513 5515 5516 5516 5517 5518 5518 5519 5521 5523 5525
5494 5498 5501 5499 5498 5495 5487 5479 5479 5466 5459 5460 5471 5475 5488 5494 5492 5491 5491 5490 5489 5490 5491 5492 5494 5495 5496 5497 5498 5499 5501 5503 5504 5507 5509 5510 5511 5511 5512 5512 5513 5514 5515 5517
5494 5489 5493 5492 5494 5488 5484 5476 5465 5463 5463 5462 5469 5471 5479 5485 5483 5483 5481 5481 5482 5483 5484 5486 5487 5488 5490 5490 5491 5493 5495 5497 5498 5500 5502 5504 5505 5506 5505 5506 5506 5507 5508 5509
5491 5482 5482 5483 5483 5480 5475 5471 5464 5454 5455 5455 5457 5477 5485 5480 5480 5477 5476 5476 5476 5476 5477 5479 5480 5481 5482 5484 5485 5487 5489 5491 5494 5496 5496 5498 5499 5499 5499 5500 5500 5500 5501 5502
5480 5472 5469 5474 5478 5475 5471 5467 5458 5457 5451 5443 5445 5469 5483 5476 5474 5472 5470 5470 5471 5470 5471 5472 5473 5474 5476 5477 5479 5481 5483 5486 5489 5491 5491 5492 5492 5493 5493 5493 5494 5494 5495 5495
5475 5468 5469 5476 5472 5465 5463 5460 5454 5447 5441 5434 5439 5469 5476 5469 5468 5467 5465 5464 5464 5464 5465 5465 5466 5468 5469 5470 5472 5474 5477 5480 5482 5484 5484 5485 5485 5485 5486 5486 5487 5487 5488 5488
5474 5459 5463 5471 5474 5461 5457 5456 5451 5448 5444 5441 5450 5466 5474 5469 5464 5462 5460 5458 5457 5457 5458 5459 5460 5461 5462 5463 5465 5467 5471 5473 5476 5477 5478 5477 5477 5478 5478 5478 5479 5480 5481 5481
5466 5455 5450 5453 5458 5456 5457 5457 5452 5448 5451 5451 5461 5460 5470 5466 5459 5456 5454 5453 5453 5453 5454 5454 5454 5455 5456 5457 5458 5460 5463 5465 5468 5469 5470 5470 5470 5470 5469 5470 5472 5473 5473 5473
5452 5448 5446 5451 5455 5452 5453 5455 5452 5451 5451 5450 5454 5459 5464 5457 5452 5451 5449 5449 5449 5449 5450 5449 5449 5450 5450 5450 5452 5454 5456 5458 5460 5461 5461 5461 5461 5461 5461 5462 5464 5465 5465 5465
5440 5440 5441 5442 5441 5451 5453 5456 5452 5450 5449 5450 5454 5462 5455 5451 5451 5448 5446 5445 5444 5443 5444 5443 5443 5443 5443 5443 5445 5447 5449 5451 5452 5452 5453 5453 5453 5454 5454 5455 5455 5456 5457 5457
5435 5430 5423 5425 5434 5441 5468 5459 5455 5452 5453 5449 5453 5453 5448 5448 5446 5443 5442 5439 5437 5438 5437 5437 5437 5437 5437 5438 5439 5441 5442 5443 5444 5445 5445 5446 5446 5446 5446 5447 5447 5448 5448 5449
5430 5426 5415 5413 5419 5437 5455 5454 5447 5446 5451 5451 5448 5447 5441 5437 5438 5441 5440 5435 5433 5433 5432 5431 5431 5431 5431 5432 5433 5434 5436 5437 5437 5438 5438 5438 5438 5439 5439 5439 5440 5440 5441 5441
5419 5416 5409 5405 5418 5435 5459 5451 5444 5444 5444 5450 5443 5440 5435 5433 5435 5442 5438 5431 5428 5427 5426 5425 5425 5425 5426 5426 5427 5429 5429 5429 5430 5431 5431 5431 5431 5432 5432 5432 5433 5433 5433 5434
5414 5405 5402 5402 5407 5428 5445 5439 5438 5437 5446 5444 5438 5435 5430 5429 5431 5431 5428 5425 5423 5421 5420 5420 5419 5419 5420 5421 5422 5422 5422 5422 5423 5424 5424 5424 5424 5425 5425 5425 5425 5425 5426 5426
5414 5406 5399 5396 5404 5430 5437 5429 5430 5436 5436 5434 5431 5429 5426 5424 5421 5420 5419 5417 5416 5415 5414 5413 5412 5412 5413 5414 5415 5415 5415 5415 5416 5416 5416 5416 5416 5417 5417 5417 5417 5417 5417 5417
5408 5417 5414 5415 5432 5435 5428 5429 5430 5426 5426 5426 5424 5423 5420 5417 5415 5414 5412 5410 5409 5408 5407 5406 5405 5405 5405 5406 5407 5407 5408 5408 5408 5407 5407 5407 5408 5408 5409 5408 5408 5407 5407 5407
5409 5408 5407 5408 5424 5426 5424 5423 5423 5421 5421 5421 5419 5416 5414 5410 5408 5406 5404 5404 5402 5401 5400 5399 5398 5397 5398 5398 5399 5399 5399 5400 5400 5399 5398 5398 5398 5398 5399 5399 5399 5398 5398 5398
5416 5404 5404 5408 5419 5419 5424 5422 5421 5419 5416 5414 5412 5409 5407 5404 5401 5399 5397 5396 5395 5394 5393 5391 5390 5390 5390 5390 5391 5391 5391 5392 5391 5390 5389 5389 5389 5389 5389 5389 5388 5389 5389 5389
5412 5410 5412 5424 5426 5420 5425 5424 5419 5414 5412 5410 5407 5404 5401 5398 5395 5393 5391 5390 5388 5386 5385 5384 5384 5383 5382 5382 5382 5383 5383 5383 5382 5382 5380 5379 5379 5379 5379 5379 5379 5380 5380 5381